Regional Weather Roundup
Issued by NWS Albany, NY

Home | Current Version | Previous Version | Graphics & Text | Print | Product List | Glossary On
Versions: 1 2 3 4 5 6 7 8 9 10 11 12 13 14 15 16 17 18 19 20 21 22 23 24 25 26 27 28 29 30 31 32 33 34 35 36 37 38 39 40 41 42 43 44 45 46 47 48 49 50
000
ASUS41 KALY 260910
RWRALY

NEW YORK STATE HOURLY WEATHER ROUNDUP
NATIONAL WEATHER SERVICE ALBANY NY
500 AM EDT TUE MAY 26 2015

NOTE: "FAIR" INDICATES FEW OR NO CLOUDS BELOW 12,000 FEET WITH NO
SIGNIFICANT WEATHER AND/OR NO OBSTRUCTIONS TO VISIBILITY.

NYZ032-033-038>043-046>054-057>066-NYZ062>081-261000-
EAST


CITY           SKY/WX    TMP DP  RH WIND       PRES   REMARKS
ALBANY         PTCLDY    72  58  61 S12       30.08S
GLENS FALLS    MOCLDY    69  58  67 S6        30.06R
POUGHKEEPSIE   CLOUDY    66  58  75 CALM      30.15R
NEWBURGH       CLEAR     66  59  77 W8        30.17
MONTGOMERY     CLEAR     62  60  93 S3        30.15S
WHITE PLAINS   PTCLDY    64  53  67 CALM      30.18S
ISLIP          CLEAR     61  56  83 SW12      30.20S
NEW YORK CITY  PTCLDY    67  53  61 SW10      30.19R
CENTRAL PARK   CLEAR     68  53  58 VRB6      30.21S
$$

NYZ005>009-017-018-044>046-055-056-261000-
CENTRAL


CITY           SKY/WX    TMP DP  RH WIND       PRES   REMARKS
FULTON         PTCLDY    69  60  73 S10       30.04R
SYRACUSE       CLOUDY    74  59  59 SW12      30.05R
ROME           MOCLDY    71  59  65 S6        30.07R
ELMIRA         PTCLDY    69  61  75 W3        30.11R
BINGHAMTON     CLOUDY    68  58  70 SW13      30.14S
MONTICELLO     MOCLDY    59  57  94 CALM      30.20R
$$

NYZ026>034-041>043-261000-
NORTH


CITY           SKY/WX    TMP DP  RH WIND       PRES   REMARKS
WATERTOWN      CLOUDY    61  60  97 SE3       30.02S
FORT DRUM      NOT AVBL
MASSENA        CLOUDY    69  63  81 SW14      29.97R
SARANAC LAKE   CLOUDY    63  61  93 SW9       30.04R
PLATTSBURGH    CLOUDY    65  61  87 VRB5      29.97S
$$

NYZ001>004-010>016-019>021-261000-
WEST


CITY           SKY/WX    TMP DP  RH WIND       PRES   REMARKS
NIAGARA FALLS  PTCLDY    66  58  75 SW12      30.06R
BUFFALO        PTCLDY    65  58  78 SW10      30.07R
DUNKIRK        PTCLDY    68  61  78 S7        30.08R
JAMESTOWN      CLEAR     64  57  77 SW7       30.15R
WELLSVILLE     CLEAR     68  58  70 W7        30.17R
ROCHESTER      MOCLDY    67  62  84 SW8       30.06R
PENN YAN       PTCLDY    69  58  67 S6        30.09R
$$

             KEY
       WCI = WIND CHILL INDEX
       VSB = VISIBILITY
       HX  = HEAT INDEX
$$



USA.gov is the U.S. government's official web portal to all federal, state and local government web resources and services.